| time (UTC) | temp F | wind direction | speed MPH | gust MPH | rain 1hr in | rain 24hr in | rain mn in | humidity % | barometer mb |
| 20260504034615 | 48 | 280 | 0.0 | 2.0 | 0.00 | 0.00 | 0.00 | 52 | 1016.0 |
| 20260504033054 | 48 | 162 | 0.0 | 2.0 | 0.00 | 0.00 | 0.00 | 51 | 1016.0 |
| 20260504031551 | 48 | 142 | 1.0 | 2.0 | 0.00 | 0.00 | 0.00 | 51 | 1016.0 |
| 20260504030118 | 48 | 281 | 0.0 | 2.0 | 0.00 | 0.00 | 0.00 | 49 | 1015.9 |
| 20260504024555 | 48 | 146 | 0.0 | 1.0 | 0.00 | 0.00 | 0.00 | 50 | 1016.0 |
| 20260504023050 | 48 | 158 | 0.0 | 2.0 | 0.00 | 0.00 | 0.00 | 50 | 1016.1 |
| 20260504021552 | 48 | 163 | 1.0 | 2.0 | 0.00 | 0.00 | 0.00 | 50 | 1016.0 |
| 20260504020051 | 49 | 160 | 1.0 | 2.0 | 0.00 | 0.00 | 0.00 | 49 | 1016.0 |
| 20260504014554 | 49 | 160 | 1.0 | 2.0 | 0.00 | 0.00 | 0.00 | 46 | 1015.9 |
| 20260504013054 | 49 | 170 | 1.0 | 3.0 | 0.00 | 0.00 | 0.00 | 45 | 1015.8 |
| 20260504011547 | 49 | 162 | 1.0 | 2.0 | 0.00 | 0.00 | 0.00 | 46 | 1015.7 |
| 20260504010046 | 50 | 158 | 1.0 | 2.0 | 0.00 | 0.00 | 0.00 | 47 | 1015.5 |
| 20260504004546 | 52 | 174 | 0.0 | 4.0 | 0.00 | 0.00 | 0.00 | 42 | 1015.3 |
| 20260504003045 | 53 | 289 | 0.0 | 4.0 | 0.00 | 0.00 | 0.00 | 38 | 1015.1 |
| 20260504001559 | 53 | 291 | 0.0 | 3.0 | 0.00 | 0.00 | 0.00 | 38 | 1015.0 |
| 20260504000044 | 54 | 330 | 0.0 | 3.0 | 0.00 | 0.00 | 0.00 | 38 | 1014.8 |
| 20260503234544 | 55 | 208 | 1.0 | 5.0 | 0.00 | 0.00 | 0.00 | 36 | 1014.6 |
| 20260503233043 | 55 | 312 | 3.0 | 7.0 | 0.00 | 0.00 | 0.00 | 34 | 1014.5 |
| 20260503231546 | 56 | 26 | 2.0 | 6.0 | 0.00 | 0.00 | 0.00 | 34 | 1014.4 |
| 20260503230043 | 56 | 298 | 2.0 | 12.0 | 0.00 | 0.00 | 0.00 | 34 | 1014.2 |
| 20260503224542 | 56 | 9 | 2.0 | 11.0 | 0.00 | 0.00 | 0.00 | 34 | 1014.2 |
| 20260503223041 | 56 | 9 | 2.0 | 7.0 | 0.00 | 0.00 | 0.00 | 34 | 1014.1 |
| 20260503221544 | 56 | 295 | 2.0 | 10.0 | 0.00 | 0.00 | 0.00 | 33 | 1014.1 |
| 20260503220040 | 56 | 8 | 5.0 | 15.0 | 0.00 | 0.00 | 0.00 | 32 | 1014.1 |
| 20260503214540 | 56 | 314 | 5.0 | 15.0 | 0.00 | 0.00 | 0.00 | 32 | 1014.0 |
| 20260503213043 | 56 | 326 | 5.0 | 18.0 | 0.00 | 0.00 | 0.00 | 32 | 1014.0 |
| 20260503211538 | 56 | 49 | 3.0 | 20.0 | 0.00 | 0.00 | 0.00 | 32 | 1013.8 |
| 20260503210036 | 56 | 322 | 7.0 | 17.0 | 0.00 | 0.00 | 0.00 | 31 | 1013.9 |
| 20260503204536 | 56 | 309 | 4.0 | 11.0 | 0.00 | 0.00 | 0.00 | 32 | 1013.9 |
| 20260503203034 | 55 | 244 | 3.0 | 19.0 | 0.00 | 0.00 | 0.00 | 31 | 1014.0 |
| 20260503201533 | 55 | 333 | 4.0 | 16.0 | 0.00 | 0.00 | 0.00 | 33 | 1014.2 |
| 20260503200033 | 55 | 20 | 8.0 | 16.0 | 0.00 | 0.00 | 0.00 | 33 | 1014.2 |
| 20260503194533 | 55 | 360 | 3.0 | 13.0 | 0.00 | 0.00 | 0.00 | 34 | 1014.4 |
| 20260503193031 | 55 | 302 | 4.0 | 12.0 | 0.00 | 0.00 | 0.00 | 34 | 1014.4 |
| 20260503191528 | 54 | 100 | 3.0 | 13.0 | 0.00 | 0.00 | 0.00 | 35 | 1014.5 |
| 20260503190041 | 54 | 342 | 3.0 | 10.0 | 0.00 | 0.00 | 0.00 | 38 | 1014.6 |
| 20260503184525 | 52 | 350 | 6.0 | 17.0 | 0.00 | 0.00 | 0.00 | 36 | 1014.8 |
| 20260503183025 | 52 | 317 | 6.0 | 15.0 | 0.00 | 0.00 | 0.00 | 36 | 1015.0 |
| 20260503181524 | 52 | 302 | 3.0 | 12.0 | 0.00 | 0.00 | 0.00 | 36 | 1014.9 |
| 20260503180035 | 52 | 336 | 6.0 | 17.0 | 0.00 | 0.00 | 0.00 | 36 | 1015.0 |
| 20260503174522 | 51 | 325 | 2.0 | 17.0 | 0.00 | 0.00 | 0.00 | 38 | 1015.0 |
| 20260503173019 | 49 | 286 | 4.0 | 14.0 | 0.00 | 0.00 | 0.00 | 41 | 1015.3 |
| 20260503171531 | 49 | 308 | 5.0 | 13.0 | 0.00 | 0.00 | 0.00 | 41 | 1015.3 |
| 20260503140120 | 45 | 343 | 5.0 | 17.0 | 0.00 | 0.00 | 0.00 | 52 | 1015.9 |
| 20260503081536 | 41 | 10 | 4.0 | 12.0 | 0.00 | 0.04 | 0.00 | 61 | 1014.1 |
| 20260503071517 | 42 | 22 | 4.0 | 9.0 | 0.00 | 0.04 | 0.00 | 59 | 1013.9 |
| 20260503054558 | 44 | 336 | 5.0 | 11.0 | 0.00 | 0.04 | 0.00 | 57 | 1014.2 |
| 20260503053057 | 44 | 1 | 4.0 | 10.0 | 0.00 | 0.04 | 0.00 | 55 | 1014.5 |
| 20260503051559 | 44 | 32 | 4.0 | 9.0 | 0.00 | 0.04 | 0.00 | 54 | 1014.5 |
| 20260503050051 | 45 | 7 | 4.0 | 15.0 | 0.00 | 0.04 | 0.00 | 53 | 1014.5 |
| 20260503044548 | 45 | 347 | 4.0 | 11.0 | 0.00 | 0.04 | 0.00 | 53 | 1014.8 |
| 20260503043048 | 45 | 352 | 4.0 | 10.0 | 0.00 | 0.04 | 0.00 | 51 | 1014.8 |
| 20260503041543 | 45 | 6 | 2.0 | 8.0 | 0.00 | 0.04 | 0.00 | 52 | 1015.0 |
| 20260503040040 | 46 | 332 | 2.0 | 9.0 | 0.00 | 0.04 | 0.00 | 51 | 1014.9 |